Location: Krasnoyarskiy Pitomnik
(51.1333°N, 71.6167°E)
Time: 08:45:14
(UTC+00:00)

Spot 4 Rocket - Pass Details

Date: 22 October 2021
Orbit: 776 x 780 km, 98.8° (Epoch: 06 December)

Event Time Altitude Azimuth Distance (km) Brightness Sun altitude
Rises 23:28:40 0° 14° (NNE) 3,271 7.6 -22.8°
Reaches altitude 10° 23:31:00 10° 13° (NNE) 2,339 6.8 -22.4°
Maximum altitude 23:36:09 75° 289° (WNW) 808 3.9 -21.6°
Enters shadow 23:38:49 29° 208° (SSW) 1,401 5.0 -21.2°
